TITAN 3C TRANSTAGE DEB, 43454

Orbit data source: Space-Track

TITAN 3C TRANSTAGE DEB, 43454 is space debris in GEO originally from a launch on Sun, 09 Feb 1969 UTC launched from the Air Force Eastern Test Range (AFETR). Debris objects in space refer to the collection of defunct objects orbiting the Earth. Examples of debris include non-operational satellites, rocket bodies, and fragments generated from explosions, collisions, or faulty payload assembly.

Loading next visibility...
Identifier
43454, 1969-013M
Orbit
GEO
Country
Flag of USUS
Related business
Manufacturer
Martin Marietta
Mission
Spacecraft
Bus & Motor
Unknown
Mass
Unknown
Launch date (UTC)
1969-02-09 (57 years ago)
Launch vehicle
Unknown
Launch site
Air Force Eastern Test Range (AFETR)
Object type
Payload
Rocket body
Debris
Shape & HBR
Unknown shape, 1.1 m
Radar Cross Section
RCS unknown

Expand to show TLE details & history
Last TLE update: 2 days ago

TLE from 2 days ago
0 TITAN 3C TRANSTAGE DEB
1 43454U 69013M   25305.43115311  .00000058  00000-0  00000-0 0  9996
2 43454   0.7657 154.5708 0551290 314.3662 257.1329  1.02843528 28286
Epoch: 2025-11-01T10:20Z
TLE epoch observation values (Epoch: 2025-11-01T10:20:51.628Z)
Latitude
-0.31009°
Longitude
163.82159°
Altitude
35,701.713 km
Speed
3.055 km/s
True Right ascension
23h 59m 59s
True Declination
0° 18' 35"
Sunlit
Object was in daylight at epoch
Visualization orbit readout
Latitude
Unknown
Longitude
Unknown
Altitude
Unknown
Speed
Unknown
Apparent Right ascension
Unknown
Apparent Declination
Unknown
Sunlit
N/A
Visualization observer readout
Local Sidereal Time
02:08:03
Azimuth
Unknown
Elevation
Unknown
Doppler factor
Unknown
Orbital elements
Apogee altitude
37,367.445 km
Perigee altitude
32,796.155 km
Semi-major axis
41,459.937 km
Eccentricity
0.05513
Inclination
0.7657°
RAAN
154.5708°
Arg. of periapsis
314.3662°
True anomaly
251.07861°
Mean anomaly
257.1329°
Eccentric anomaly
254.09516°
Mean motion
0.2571 °/min
Orbital period
1,400.24 mins
BSTAR
0
Loading maneuver chart data...
Computing Atmospheric mass density...

Documentation

Showing up to 5 results
|